DW3886 Weather Reports


time (UTC)temp
C
wind
direction
speed
KPH
gust
KPH
rain 1hr
cm
rain 24hr
cm
rain mn
cm
humidity
%
barometer
mb
20260906172036 27 113 8.0 14.5 0.00 0.00 0.00 81 1017.8
20260906171015 27 113 9.7 17.7 0.00 0.00 0.00 81 1017.7
20260906170015 27 90 9.7 17.7 0.00 0.00 0.00 80 1017.9
20260906165016 27 113 8.0 12.9 0.00 0.00 0.00 80 1017.8
20260906164015 27 113 9.7 19.3 0.00 0.00 0.00 79 1017.7
20260906163017 27 113 9.7 19.3 0.00 0.00 0.00 79 1017.6
20260906162016 27 90 9.7 17.7 0.00 0.00 0.00 79 1017.9
20260906161036 27 90 8.0 17.7 0.00 0.00 0.00 80 1017.8
20260906160016 27 90 8.0 19.3 0.00 0.00 0.00 80 1017.9
20260906155017 27 135 9.7 17.7 0.00 0.00 0.00 80 1018.0
20260906154037 27 113 8.0 19.3 0.00 0.00 0.00 79 1018.0
20260906153017 27 135 8.0 17.7 0.00 0.00 0.00 80 1018.1
20260906152038 26 90 8.0 17.7 0.00 0.00 0.00 82 1018.2
20260906151017 26 90 8.0 17.7 0.00 0.00 0.00 82 1018.2
20260906150037 26 90 6.4 16.1 0.00 0.00 0.00 82 1018.2
20260906145017 26 90 8.0 14.5 0.00 0.00 0.00 83 1018.1
20260906144017 25 135 8.0 17.7 0.00 0.00 0.00 84 1018.2
20260906143100 25 135 8.0 14.5 0.00 0.00 0.00 85 1018.2
20260906142017 24 135 6.4 12.9 0.00 0.00 0.00 86 1018.2
20260906141017 24 113 6.4 11.3 0.00 0.00 0.00 86 1018.4
20260906140017 24 113 6.4 17.7 0.00 0.00 0.00 87 1018.3
20260906135017 23 113 6.4 17.7 0.00 0.00 0.00 87 1018.1
20260906134019 23 135 9.7 16.1 0.00 0.00 0.00 88 1018.0
20260906133017 23 90 6.4 12.9 0.00 0.00 0.00 89 1018.0
20260906132017 23 158 6.4 12.9 0.00 0.00 0.00 90 1018.0
20260906131016 22 90 6.4 16.1 0.00 0.00 0.00 90 1018.0
20260906130017 22 113 3.2 8.0 0.00 0.00 0.00 90 1018.1
20260906125037 22 113 3.2 11.3 0.00 0.00 0.00 91 1017.9
20260906124017 22 180 3.2 8.0 0.00 0.00 0.00 91 1017.7
20260906123017 22 90 4.8 9.7 0.00 0.00 0.00 91 1017.5
20260906122037 22 180 3.2 9.7 0.00 0.00 0.00 91 1017.4
20260906121017 22 68 4.8 9.7 0.00 0.00 0.00 91 1017.3
20260906120017 22 90 3.2 9.7 0.00 0.00 0.00 91 1017.3
20260906115017 22 135 4.8 11.3 0.00 0.00 0.00 91 1017.1
20260906114017 22 113 6.4 12.9 0.00 0.00 0.00 91 1017.0
20260906113017 22 113 4.8 12.9 0.00 0.00 0.00 91 1016.8
20260906112017 22 90 6.4 12.9 0.00 0.00 0.00 91 1016.8
20260906111017 22 90 4.8 12.9 0.00 0.00 0.00 90 1016.9
20260906110017 22 113 4.8 11.3 0.00 0.00 0.00 90 1017.1
20260906105017 22 113 6.4 11.3 0.00 0.00 0.00 90 1017.2
20260906104017 22 90 4.8 12.9 0.00 0.00 0.00 90 1017.1
20260906103017 22 135 4.8 9.7 0.00 0.00 0.00 90 1017.2
20260906102023 22 135 3.2 8.0 0.00 0.00 0.00 90 1017.2
20260906101017 22 113 6.4 11.3 0.00 0.00 0.00 90 1017.1
20260906100037 22 90 4.8 12.9 0.00 0.00 0.00 90 1017.1
20260906095017 22 90 4.8 12.9 0.00 0.00 0.00 90 1017.2
20260906094017 22 68 3.2 11.3 0.00 0.00 0.00 90 1017.0
20260906093037 22 113 4.8 11.3 0.00 0.00 0.00 89 1016.9
20260906092017 22 68 6.4 12.9 0.00 0.00 0.00 89 1016.8
20260906091017 22 90 6.4 11.3 0.00 0.00 0.00 89 1016.8
20260906090017 23 90 6.4 12.9 0.00 0.00 0.00 89 1016.6
20260906085017 23 90 6.4 12.9 0.00 0.00 0.00 89 1016.4
20260906084017 23 90 4.8 11.3 0.00 0.00 0.00 89 1016.6
20260906083017 23 113 4.8 11.3 0.00 0.00 0.00 88 1016.6
20260906082018 23 90 6.4 12.9 0.00 0.00 0.00 88 1016.6
20260906081017 23 90 8.0 17.7 0.00 0.00 0.00 88 1016.6
20260906080017 23 90 4.8 12.9 0.00 0.00 0.00 88 1016.4
20260906075017 23 113 4.8 9.7 0.00 0.00 0.00 88 1016.3
20260906074017 23 90 3.2 11.3 0.00 0.00 0.00 88 1016.3
20260906073017 23 113 6.4 12.9 0.00 0.00 0.00 89 1016.3
20260906072017 23 90 6.4 14.5 0.00 0.00 0.00 89 1016.5
20260906071017 23 113 6.4 14.5 0.00 0.00 0.00 89 1016.5
20260906070017 24 90 6.4 11.3 0.00 0.00 0.00 89 1016.6
20260906065017 24 68 6.4 16.1 0.00 0.00 0.00 89 1016.6
20260906064017 24 90 4.8 12.9 0.00 0.00 0.00 88 1016.6
20260906063017 24 113 6.4 14.5 0.00 0.00 0.00 88 1016.6
20260906062017 24 113 8.0 12.9 0.00 0.00 0.00 88 1016.5
20260906061037 25 90 8.0 16.1 0.00 0.00 0.00 89 1016.4
20260906060017 25 90 9.7 22.5 0.00 0.00 0.00 89 1016.4
20260906055017 25 45 6.4 12.9 0.00 0.00 0.00 90 1016.5
20260906054037 25 113 4.8 12.9 0.00 0.00 0.00 90 1016.4
20260906053018 25 68 3.2 9.7 0.00 0.00 0.00 90 1016.4
20260906052018 25 68 4.8 16.1 0.00 0.00 0.00 90 1016.4
20260906051017 25 68 6.4 9.7 0.00 0.00 0.00 89 1016.5
20260906050018 25 68 4.8 12.9 0.00 0.00 0.00 89 1016.5
20260906045016 25 68 4.8 11.3 0.00 0.00 0.00 89 1016.6
20260906044036 26 45 4.8 9.7 0.00 0.00 0.00 88 1016.6
20260906043016 26 68 6.4 16.1 0.00 0.00 0.00 88 1016.3
20260906042021 26 68 6.4 17.7 0.00 0.00 0.00 87 1016.2
20260906041016 26 68 3.2 9.7 0.00 0.00 0.00 87 1016.1
20260906040016 26 68 4.8 9.7 0.00 0.00 0.00 86 1016.0
20260906035036 27 68 4.8 8.0 0.00 0.00 0.00 86 1015.9
20260906034036 27 68 6.4 17.7 0.00 0.00 0.00 85 1015.8
20260906033036 27 23 3.2 12.9 0.00 0.00 0.00 84 1016.0
20260906032016 27 45 4.8 9.7 0.00 0.00 0.00 84 1016.0
20260906031016 27 68 4.8 12.9 0.00 0.00 0.00 83 1016.0
20260906030016 28 23 3.2 9.7 0.00 0.00 0.00 82 1015.8
20260906025036 28 113 3.2 8.0 0.00 0.00 0.00 82 1015.7
20260906024016 28 90 4.8 11.3 0.00 0.00 0.00 81 1015.5
20260906023016 28 113 4.8 9.7 0.00 0.00 0.00 81 1015.1
20260906022056 28 68 4.8 12.9 0.00 0.00 0.00 81 1015.1
20260906021016 28 68 4.8 12.9 0.00 0.00 0.00 81 1014.8
20260906020016 28 45 4.8 12.9 0.00 0.00 0.00 80 1014.7
20260906015016 28 68 4.8 12.9 0.00 0.00 0.00 79 1014.6
20260906014016 28 90 3.2 8.0 0.00 0.00 0.00 79 1014.6
20260906013016 29 45 3.2 8.0 0.00 0.00 0.00 78 1014.5
20260906012016 29 68 1.6 6.4 0.00 0.00 0.00 78 1014.6
20260906011036 29 90 1.6 4.8 0.00 0.00 0.00 77 1014.4
20260906010016 30 68 3.2 6.4 0.00 0.00 0.00 77 1014.4
20260906005036 30 68 3.2 6.4 0.00 0.00 0.00 76 1014.4
20260906004036 30 90 4.8 11.3 0.00 0.00 0.00 75 1014.2
20260906003016 30 90 4.8 11.3 0.00 0.00 0.00 75 1014.3
20260906002016 30 90 3.2 9.7 0.00 0.00 0.00 75 1014.2
20260906001016 30 90 6.4 12.9 0.00 0.00 0.00 74 1014.2
20260906000016 31 90 3.2 8.0 0.00 0.00 0.00 75 1014.3
20260905235016 31 45 8.0 12.9 0.00 0.00 0.00 74 1014.2
20260905234016 31 45 8.0 17.7 0.00 0.00 0.00 74 1014.3
20260905233016 31 45 6.4 12.9 0.00 0.00 0.00 74 1014.3
20260905232016 31 45 6.4 17.7 0.00 0.00 0.00 73 1014.1
20260905231016 31 90 8.0 16.1 0.00 0.00 0.00 72 1014.0
20260905230016 32 90 6.4 12.9 0.00 0.00 0.00 70 1014.1
20260905225016 32 113 8.0 19.3 0.00 0.00 0.00 70 1014.1
20260905224016 32 45 6.4 12.9 0.00 0.00 0.00 71 1014.0
20260905223016 32 45 8.0 17.7 0.00 0.00 0.00 69 1014.1
20260905222020 32 90 4.8 12.9 0.00 0.00 0.00 71 1014.1
20260905221016 32 68 6.4 9.7 0.00 0.00 0.00 71 1014.1
20260905220016 32 68 6.4 12.9 0.00 0.00 0.00 71 1014.1
20260905215016 32 68 6.4 14.5 0.00 0.00 0.00 72 1014.1
20260905214016 32 45 6.4 12.9 0.00 0.00 0.00 71 1014.3
20260905213016 32 45 6.4 12.9 0.00 0.00 0.00 70 1014.2
20260905212017 32 68 4.8 16.1 0.00 0.00 0.00 71 1014.4
20260905211016 32 45 4.8 11.3 0.00 0.00 0.00 71 1014.4
20260905210016 32 68 8.0 16.1 0.00 0.00 0.00 69 1014.2
20260905205016 32 45 8.0 14.5 0.00 0.00 0.00 70 1013.8
20260905204016 32 90 8.0 22.5 0.00 0.00 0.00 70 1014.0
20260905203016 32 90 8.0 19.3 0.00 0.00 0.00 71 1014.1
20260905202016 32 68 9.7 22.5 0.00 0.00 0.00 71 1014.2
20260905201016 32 45 6.4 19.3 0.00 0.00 0.00 70 1014.4
20260905200036 32 68 3.2 9.7 0.00 0.00 0.00 74 1014.5
20260905195016 32 68 4.8 14.5 0.00 0.00 0.00 72 1014.6
20260905194036 32 45 6.4 17.7 0.00 0.00 0.00 73 1014.8
20260905193015 32 68 6.4 16.1 0.00 0.00 0.00 73 1015.0
20260905192016 32 45 4.8 9.7 0.00 0.00 0.00 74 1015.2
20260905191016 32 338 3.2 11.3 0.00 0.00 0.00 73 1015.5
20260905190015 32 45 4.8 17.7 0.00 0.00 0.00 71 1015.9
20260905185016 32 0 3.2 8.0 0.00 0.00 0.00 72 1016.0
20260905184016 32 338 3.2 9.7 0.00 0.00 0.00 73 1016.0
20260905183016 32 23 4.8 12.9 0.00 0.00 0.00 71 1016.1
20260905182015 32 338 1.6 8.0 0.00 0.00 0.00 74 1016.1
20260905181015 32 45 3.2 6.4 0.00 0.00 0.00 72 1016.1
20260905180016 32 338 3.2 9.7 0.00 0.00 0.00 72 1016.2
20260905175036 32 338 4.8 12.9 0.00 0.00 0.00 74 1016.3
20260905174016 32 315 3.2 9.7 0.00 0.00 0.00 74 1016.4
20260905173015 31 315 4.8 14.5 0.00 0.00 0.00 77 1016.6